This is the latest recevied weather packets stored in our database for station/object N9PBY-2. If no packets are shown the sender has not sent any weather packets the latest 10 day(s).
| Time | Temp. | Humidity | Pressure | Rain* | Wind** | Luminosity | Snow |
|---|---|---|---|---|---|---|---|
| 1778098206 | 11.11° C | 28% | 1012.4 hPa | 0 mm | - | - | - |
| 1778097606 | 12.22° C | 27% | 1012.4 hPa | 0 mm | - | - | - |
| 1778097007 | 12.22° C | 28% | 1012.4 hPa | 0 mm | - | - | - |
| 1778096407 | 12.78° C | 29% | 1012.2 hPa | 0 mm | - | - | - |
| 1778095806 | 13.33° C | 28% | 1012.3 hPa | 0 mm | - | - | - |
| 1778095206 | 13.33° C | 29% | 1012.2 hPa | 0 mm | - | - | - |
| 1778094006 | 12.22° C | 34% | 1012.4 hPa | 0 mm | - | - | - |
| 1778093407 | 12.78° C | 29% | 1012.4 hPa | 0 mm | - | - | - |
| 1778092806 | 13.33° C | 28% | 1012.3 hPa | 0 mm | - | - | - |
| 1778092207 | 12.78° C | 32% | 1012.2 hPa | 0 mm | - | - | - |
| 1778091606 | 12.78° C | 28% | 1012.2 hPa | 0 mm | - | - | - |
| 1778091007 | 13.89° C | 30% | 1012.3 hPa | 0 mm | - | - | - |
| 1778090406 | 14.44° C | 26% | 1012.3 hPa | 0 mm | - | - | - |
| 1778089806 | 15° C | 28% | 1012.2 hPa | 0 mm | - | - | - |
| 1778089206 | 14.44° C | 30% | 1012.4 hPa | 0 mm | - | - | - |
| 1778088607 | 12.78° C | 34% | 1012.5 hPa | 0 mm | - | - | - |
| 1778088007 | 13.33° C | 29% | 1012.7 hPa | 0 mm | - | - | - |
| 1778087407 | 11.67° C | 34% | 1012.8 hPa | 0 mm | - | - | - |
| 1778086806 | 11.11° C | 30% | 1012.8 hPa | 0 mm | - | - | - |
| 1778086206 | 11.67° C | 32% | 1012.7 hPa | 0 mm | - | - | - |
| 1778085606 | 12.22° C | 32% | 1012.7 hPa | 0 mm | - | - | - |
| 1778085007 | 12.78° C | 33% | 1012.8 hPa | 0 mm | - | - | - |
| 1778084407 | 12.22° C | 33% | 1012.7 hPa | 0 mm | - | - | - |
| 1778083807 | 11.67° C | 32% | 1012.8 hPa | 0 mm | - | - | - |
| 1778083206 | 12.22° C | 34% | 1012.8 hPa | 0 mm | - | - | - |
* Rain latest hour (hover to see other rain measurements)
** Current wind speed in m/s (hover to see current wind gust speed)